TimeCST,TemperatureF,Dew PointF,Humidity,Sea Level PressureIn,VisibilityMPH,Wind Direction,Wind SpeedMPH,Gust SpeedMPH,PrecipitationIn,Events,Conditions,WindDirDegrees,DateUTC
1:52 AM,46.9,43.0,86,29.80,10.0,SE,6.9,-,0.01,Rain,Light Rain,130,2013-03-05 07:52:00
2:52 AM,46.0,43.0,89,29.79,4.0,East,4.6,-,0.04,Rain,Light Rain,100,2013-03-05 08:52:00
3:52 AM,48.0,46.0,93,29.77,4.0,South,10.4,-,0.08,Rain,Rain,170,2013-03-05 09:52:00
4:37 AM,48.2,46.4,93,29.78,6.0,Calm,Calm,-,0.01,Rain,Light Rain,0,2013-03-05 10:37:00
4:52 AM,48.0,46.0,93,29.80,4.0,NNW,9.2,-,0.04,Rain,Light Rain,330,2013-03-05 10:52:00
5:52 AM,48.0,46.9,96,29.79,9.0,Calm,Calm,-,0.02,,Overcast,0,2013-03-05 11:52:00
6:52 AM,48.0,46.9,96,29.77,1.8,Calm,Calm,-,0.00,Rain,Light Rain,0,2013-03-05 12:52:00
7:08 AM,48.2,46.4,93,29.77,1.0,Calm,Calm,-,0.01,Rain,Light Rain,0,2013-03-05 13:08:00
7:39 AM,48.2,48.2,100,29.76,0.8,East,3.5,-,0.05,Rain,Light Rain,80,2013-03-05 13:39:00
7:52 AM,48.9,48.0,97,29.77,1.0,Calm,Calm,-,0.05,,Overcast,0,2013-03-05 13:52:00
7:58 AM,48.2,48.2,100,29.77,0.8,Calm,Calm,-,0.00,Rain,Light Rain,0,2013-03-05 13:58:00
8:35 AM,48.2,48.2,100,29.78,0.8,WSW,3.5,-,0.06,Rain,Light Rain,240,2013-03-05 14:35:00
8:41 AM,48.2,48.2,100,29.76,1.0,Calm,Calm,-,0.06,Rain,Light Rain,0,2013-03-05 14:41:00
8:47 AM,50.0,48.2,94,29.75,0.8,Calm,Calm,-,0.07,Rain,Rain,0,2013-03-05 14:47:00
8:50 AM,50.0,48.2,94,29.75,0.5,Calm,Calm,-,0.08,Fog-Rain,Rain,0,2013-03-05 14:50:00
8:52 AM,50.0,48.9,96,29.75,0.5,Calm,Calm,-,0.08,Fog-Rain,Light Rain,0,2013-03-05 14:52:00
9:30 AM,50.0,50.0,100,29.74,0.8,Calm,Calm,-,0.06,Rain,Heavy Rain,0,2013-03-05 15:30:00
9:47 AM,51.8,50.0,94,29.73,1.2,Calm,Calm,-,0.06,Rain,Light Rain,0,2013-03-05 15:47:00
9:52 AM,52.0,51.1,97,29.73,1.5,Calm,Calm,-,0.06,Rain,Light Rain,0,2013-03-05 15:52:00
10:01 AM,51.8,51.8,100,29.73,3.0,SSW,3.5,-,0.00,,Overcast,210,2013-03-05 16:01:00
10:08 AM,51.8,51.8,100,29.73,2.5,SSW,4.6,-,0.00,,Overcast,200,2013-03-05 16:08:00
10:23 AM,51.8,50.0,94,29.73,1.8,Calm,Calm,-,0.01,Rain,Rain,0,2013-03-05 16:23:00
10:32 AM,51.8,51.8,100,29.72,1.8,NW,5.8,-,0.03,Rain,Rain,310,2013-03-05 16:32:00
10:39 AM,51.8,50.0,94,29.72,3.0,WNW,8.1,-,0.04,Rain,Light Rain,290,2013-03-05 16:39:00
10:52 AM,52.0,50.0,93,29.71,5.0,NW,10.4,-,0.05,Rain,Light Rain,310,2013-03-05 16:52:00
11:52 AM,48.0,45.0,89,29.75,10.0,NW,17.3,-,0.01,,Overcast,320,2013-03-05 17:52:00
12:52 PM,42.1,39.0,89,29.78,2.5,WNW,16.1,29.9,0.02,Rain,Light Rain,300,2013-03-05 18:52:00
1:06 PM,41.0,39.2,93,29.78,3.0,WNW,21.9,31.1,0.01,Rain,Light Rain,300,2013-03-05 19:06:00
1:28 PM,39.2,35.6,87,29.80,6.0,WNW,24.2,36.8,0.02,Rain,Light Rain,300,2013-03-05 19:28:00
1:52 PM,37.9,35.1,89,29.83,10.0,WNW,18.4,34.5,0.03,,Overcast,300,2013-03-05 19:52:00
2:25 PM,37.4,33.8,87,29.85,10.0,WNW,15.0,31.1,0.00,,Overcast,290,2013-03-05 20:25:00
2:52 PM,36.0,33.1,89,29.88,8.0,WNW,19.6,29.9,0.00,Snow,Light Snow,300,2013-03-05 20:52:00
3:52 PM,37.0,32.0,82,29.92,10.0,WNW,17.3,25.3,0.00,,Overcast,300,2013-03-05 21:52:00
4:52 PM,37.0,30.0,76,29.95,10.0,WNW,16.1,32.2,N/A,,Overcast,300,2013-03-05 22:52:00
5:12 PM,37.4,30.2,75,29.96,10.0,WNW,18.4,23.0,N/A,,Overcast,290,2013-03-05 23:12:00
5:35 PM,37.4,28.4,70,29.96,10.0,WNW,15.0,26.5,N/A,,Overcast,300,2013-03-05 23:35:00
5:52 PM,37.0,28.9,73,29.97,10.0,WNW,17.3,25.3,N/A,,Overcast,300,2013-03-05 23:52:00
6:52 PM,37.0,28.9,73,29.98,10.0,West,11.5,24.2,N/A,,Overcast,280,2013-03-06 00:52:00
7:52 PM,37.0,26.1,65,29.99,10.0,WNW,20.7,28.8,N/A,,Overcast,300,2013-03-06 01:52:00
8:52 PM,34.0,21.0,59,30.01,10.0,WNW,17.3,24.2,0.00,,Overcast,290,2013-03-06 02:52:00
9:52 PM,33.1,23.0,66,30.03,9.0,WNW,17.3,26.5,0.00,Snow,Light Snow,300,2013-03-06 03:52:00
10:52 PM,33.1,24.1,70,30.03,10.0,WNW,17.3,24.2,0.00,,Overcast,290,2013-03-06 04:52:00
11:45 PM,33.8,24.8,70,30.02,10.0,WNW,16.1,26.5,0.00,,Overcast,290,2013-03-06 05:45:00
11:52 PM,33.1,24.1,70,30.03,10.0,WNW,25.3,34.5,0.00,,Overcast,300,2013-03-06 05:52:00